• In Austria
  • List of Countries
  • For 7 days
  • Water Temperature
  • Satellite Maps
  • Weather Map
  • News
  • Weather Widgets
  • user-avatar
    Login

    Hourly Weather Canberra

    Today, 21 May, Monday

    Time Temperature Precipitation Wind Pressure Humidity
    00:00 +8°C° 0 mm 3 mps 712 mmHg 88%
    01:00 +9°C° 0 mm 3 mps 712 mmHg 89%
    02:00 +8°C° 0 mm 4 mps 712 mmHg 88%
    03:00 +8°C° 0 mm 4 mps 712 mmHg 87%
    04:00 +8°C° 0 mm 4 mps 711 mmHg 86%
    05:00 +8°C° 0 mm 4 mps 711 mmHg 85%
    06:00 +8°C° 0 mm 4 mps 711 mmHg 85%
    07:00 +8°C° 0 mm 4 mps 711 mmHg 84%
    08:00 +9°C° 0 mm 5 mps 712 mmHg 78%
    09:00 +10°C° 0 mm 5 mps 712 mmHg 73%
    10:00 +11°C° 0 mm 6 mps 712 mmHg 67%
    11:00 +13°C° 0 mm 6 mps 712 mmHg 63%
    12:00 +13°C° 0 mm 6 mps 712 mmHg 60%
    13:00 +14°C° 0 mm 6 mps 711 mmHg 57%
    14:00 +14°C° 0 mm 5 mps 711 mmHg 59%
    15:00 +13°C° 0 mm 5 mps 711 mmHg 61%
    16:00 +13°C° 0 mm 5 mps 711 mmHg 63%
    17:00 +11°C° 0 mm 4 mps 711 mmHg 69%
    18:00 +10°C° 0 mm 4 mps 711 mmHg 75%
    19:00 +8°C° 0 mm 4 mps 711 mmHg 82%
    20:00 +7°C° 0 mm 4 mps 712 mmHg 82%
    21:00 +8°C° 0 mm 3 mps 712 mmHg 83%
    22:00 +8°C° 0 mm 3 mps 712 mmHg 84%
    23:00 +8°C° 0 mm 3 mps 712 mmHg 84%

    Tomorrow, 22 May, Tuesday

    Time Temperature Precipitation Wind Pressure Humidity
    00:00 +7°C° 0 mm 3 mps 712 mmHg 85%
    01:00 +7°C° 0 mm 3 mps 712 mmHg 86%
    02:00 +7°C° 0 mm 3 mps 711 mmHg 86%
    03:00 +7°C° 0 mm 3 mps 711 mmHg 87%
    04:00 +7°C° 0 mm 3 mps 711 mmHg 88%
    05:00 +7°C° 0 mm 3 mps 711 mmHg 89%
    06:00 +7°C° 0 mm 3 mps 712 mmHg 90%
    07:00 +7°C° 0 mm 3 mps 712 mmHg 91%
    08:00 +9°C° 0 mm 3 mps 712 mmHg 81%
    09:00 +12°C° 0 mm 4 mps 713 mmHg 71%
    10:00 +14°C° 0 mm 4 mps 713 mmHg 61%
    11:00 +15°C° 0 mm 5 mps 713 mmHg 56%
    12:00 +17°C° 0 mm 5 mps 713 mmHg 52%
    13:00 +19°C° 0 mm 5 mps 713 mmHg 47%
    14:00 +17°C° 0 mm 5 mps 713 mmHg 50%
    15:00 +18°C° 0 mm 4 mps 713 mmHg 54%
    16:00 +17°C° 0 mm 4 mps 713 mmHg 57%
    17:00 +14°C° 0 mm 3 mps 713 mmHg 66%
    18:00 +12°C° 0 mm 3 mps 713 mmHg 76%
    19:00 +10°C° 0 mm 2 mps 713 mmHg 85%
    20:00 +9°C° 0 mm 2 mps 713 mmHg 88%
    21:00 +9°C° 0 mm 2 mps 714 mmHg 91%
    22:00 +9°C° 0 mm 1 mps 714 mmHg 94%
    23:00 +9°C° 0 mm 1 mps 714 mmHg 95%

    Day after tomorrow, 23 May, Wednesday

    Time Temperature Precipitation Wind Pressure Humidity
    00:00 +9°C° 0 mm 1 mps 714 mmHg 95%
    01:00 +9°C° 0 mm 1 mps 714 mmHg 96%
    02:00 +9°C° 0 mm 1 mps 714 mmHg 96%
    03:00 +8°C° 0 mm 1 mps 714 mmHg 96%
    04:00 +8°C° 0 mm 1 mps 714 mmHg 95%
    05:00 +8°C° 0 mm 1 mps 714 mmHg 96%
    06:00 +8°C° 0 mm 1 mps 715 mmHg 96%
    07:00 +7°C° 0 mm 1 mps 715 mmHg 96%
    08:00 +10°C° 0 mm 1 mps 716 mmHg 87%
    09:00 +12°C° 0 mm 1 mps 716 mmHg 78%
    10:00 +14°C° 0 mm 1 mps 717 mmHg 69%
    11:00 +15°C° 0 mm 2 mps 716 mmHg 63%
    12:00 +17°C° 0 mm 2 mps 716 mmHg 57%
    13:00 +18°C° 0 mm 2 mps 715 mmHg 51%
    14:00 +18°C° 0 mm 2 mps 715 mmHg 53%
    15:00 +17°C° 0 mm 2 mps 715 mmHg 56%
    16:00 +17°C° 0 mm 3 mps 714 mmHg 58%
    17:00 +15°C° 0 mm 2 mps 714 mmHg 69%
    18:00 +12°C° 0 mm 2 mps 714 mmHg 80%
    19:00 +9°C° 0 mm 2 mps 714 mmHg 91%
    20:00 +9°C° 0 mm 2 mps 715 mmHg 92%
    21:00 +9°C° 0 mm 1 mps 715 mmHg 92%
    22:00 +9°C° 0 mm 1 mps 715 mmHg 93%
    23:00 +8°C° 0 mm 1 mps 715 mmHg 92%

    24 May, Thursday

    Time Temperature Precipitation Wind Pressure Humidity
    00:00 +8°C° 0 mm 1 mps 715 mmHg 92%
    01:00 +8°C° 0 mm 1 mps 714 mmHg 92%
    02:00 +8°C° 0 mm 1 mps 714 mmHg 92%
    03:00 +8°C° 0 mm 1 mps 714 mmHg 93%
    04:00 +7°C° 0 mm 1 mps 714 mmHg 93%
    05:00 +7°C° 0 mm 1 mps 715 mmHg 94%
    06:00 +6°C° 0 mm 0 mps 715 mmHg 94%
    07:00 +6°C° 0 mm 0 mps 715 mmHg 94%
    08:00 +9°C° 0 mm 1 mps 716 mmHg 87%
    09:00 +11°C° 0 mm 1 mps 716 mmHg 79%
    10:00 +14°C° 0 mm 1 mps 716 mmHg 71%
    11:00 +15°C° 0 mm 1 mps 716 mmHg 69%
    12:00 +15°C° 0 mm 1 mps 716 mmHg 67%
    13:00 +16°C° 0 mm 2 mps 715 mmHg 65%
    14:00 +16°C° 0 mm 1 mps 715 mmHg 66%
    15:00 +15°C° 0 mm 1 mps 715 mmHg 68%
    16:00 +15°C° 0 mm 1 mps 714 mmHg 70%
    17:00 +13°C° 0 mm 1 mps 715 mmHg 77%
    18:00 +12°C° 0 mm 1 mps 715 mmHg 85%
    19:00 +10°C° 0 mm 1 mps 715 mmHg 92%
    20:00 +10°C° 0 mm 1 mps 716 mmHg 93%
    21:00 +9°C° 0 mm 1 mps 716 mmHg 93%
    22:00 +9°C° 0 mm 1 mps 716 mmHg 94%
    23:00 +9°C° 0 mm 1 mps 716 mmHg 95%

    25 May, Friday

    Time Temperature Precipitation Wind Pressure Humidity
    00:00 +8°C° 0 mm 1 mps 716 mmHg 96%
    01:00 +8°C° 0 mm 1 mps 716 mmHg 96%
    02:00 +8°C° 0 mm 1 mps 715 mmHg 96%
    03:00 +7°C° 0 mm 1 mps 715 mmHg 97%
    04:00 +7°C° 0 mm 1 mps 715 mmHg 97%
    05:00 +7°C° 0 mm 1 mps 715 mmHg 97%
    06:00 +7°C° 0 mm 1 mps 716 mmHg 96%
    07:00 +7°C° 0 mm 1 mps 716 mmHg 96%
    08:00 +9°C° 0 mm 1 mps 716 mmHg 88%
    09:00 +12°C° 0 mm 1 mps 716 mmHg 79%
    10:00 +14°C° 0 mm 1 mps 716 mmHg 70%
    11:00 +16°C° 0 mm 1 mps 716 mmHg 63%
    12:00 +18°C° 0 mm 1 mps 715 mmHg 56%
    13:00 +19°C° 0 mm 1 mps 715 mmHg 50%
    14:00 +19°C° 0 mm 1 mps 715 mmHg 51%
    15:00 +18°C° 0 mm 1 mps 714 mmHg 53%
    16:00 +18°C° 0 mm 1 mps 714 mmHg 55%
    17:00 +15°C° 0 mm 1 mps 714 mmHg 65%
    18:00 +12°C° 0 mm 1 mps 714 mmHg 74%
    19:00 +10°C° 0 mm 1 mps 715 mmHg 84%
    20:00 +10°C° 0 mm 1 mps 715 mmHg 86%
    21:00 +9°C° 0 mm 1 mps 715 mmHg 87%
    22:00 +9°C° 0 mm 1 mps 715 mmHg 89%
    23:00 +8°C° 0 mm 1 mps 715 mmHg 90%

    26 May, Saturday

    Time Temperature Precipitation Wind Pressure Humidity
    00:00 +8°C° 0 mm 1 mps 715 mmHg 90%
    01:00 +7°C° 0 mm 0 mps 714 mmHg 90%
    02:00 +7°C° 0 mm 0 mps 714 mmHg 90%
    03:00 +6°C° 0 mm 0 mps 714 mmHg 90%
    04:00 +6°C° 0 mm 0 mps 714 mmHg 90%
    05:00 +7°C° 0 mm 1 mps 714 mmHg 89%
    06:00 +7°C° 0 mm 1 mps 714 mmHg 88%
    07:00 +7°C° 0 mm 1 mps 714 mmHg 87%
    08:00 +10°C° 0 mm 1 mps 715 mmHg 76%
    09:00 +13°C° 0 mm 1 mps 715 mmHg 65%
    10:00 +15°C° 0 mm 1 mps 715 mmHg 53%
    11:00 +18°C° 0 mm 1 mps 715 mmHg 48%
    12:00 +18°C° 0 mm 2 mps 714 mmHg 43%
    13:00 +19°C° 0 mm 2 mps 714 mmHg 39%
    14:00 +19°C° 0 mm 2 mps 713 mmHg 42%
    15:00 +18°C° 0 mm 2 mps 713 mmHg 46%
    16:00 +17°C° 0 mm 2 mps 713 mmHg 49%
    17:00 +15°C° 0 mm 1 mps 713 mmHg 60%
    18:00 +12°C° 0 mm 1 mps 713 mmHg 71%
    19:00 +10°C° 0 mm 1 mps 713 mmHg 82%
    20:00 +9°C° 0 mm 1 mps 713 mmHg 83%
    21:00 +8°C° 0 mm 0 mps 713 mmHg 85%
    22:00 +7°C° 0 mm 0 mps 713 mmHg 86%
    23:00 +7°C° 0 mm 0 mps 713 mmHg 86%
    Show more